K6PKL-2 Weather Reports


Display with metric or nautical units.
time (UTC)temp
F
wind
direction
speed
MPH
gust
MPH
rain 1hr
in
rain 24hr
in
rain mn
in
humidity
%
barometer
mb
20260505101833 56 0 0.0 0.0 0.00 0.00 0.03 88 1019.4
20260505101433 55 0 0.0 0.0 0.00 0.00 0.03 88 1019.4
20260505101033 55 315 0.0 0.0 0.00 0.00 0.03 88 1019.5
20260505100633 56 315 0.0 0.0 0.00 0.00 0.03 88 1019.5
20260505100233 56 315 0.0 0.0 0.00 0.00 0.03 88 1019.4
20260505095833 56 0 0.0 0.0 0.00 0.00 0.03 88 1019.4
20260505095433 56 45 0.0 0.0 0.00 0.00 0.03 88 1019.5
20260505094632 56 0 0.0 0.0 0.00 0.00 0.03 88 1019.3
20260505094232 56 0 0.0 0.0 0.00 0.00 0.03 88 1019.3
20260505093432 56 0 0.0 0.0 0.00 0.00 0.03 89 1019.7
20260505093033 56 2 0.0 0.0 0.00 0.00 0.03 88 1019.8
20260505092632 56 315 0.0 0.0 0.00 0.00 0.03 88 1019.8
20260505092231 56 27 0.0 0.0 0.00 0.00 0.03 88 1019.9
20260505091831 56 333 0.0 0.0 0.00 0.00 0.03 88 1020.0
20260505091431 56 0 0.0 0.0 0.00 0.00 0.03 88 1019.9
20260505091031 56 355 0.0 0.0 0.00 0.00 0.03 88 1020.1
20260505090631 56 13 0.0 0.0 0.00 0.00 0.03 88 1020.1
20260505090231 56 333 0.0 0.0 0.00 0.00 0.03 88 1020.1
20260505085831 56 315 0.0 0.0 0.00 0.00 0.03 88 1020.0
20260505085431 56 315 0.0 0.0 0.00 0.00 0.03 88 1019.9
20260505085030 56 315 0.0 0.0 0.00 0.00 0.03 87 1019.9
20260505084631 56 0 0.0 0.0 0.00 0.00 0.03 87 1019.9
20260505084231 56 0 0.0 0.0 0.00 0.00 0.03 87 1019.9
20260505083831 56 331 0.0 0.0 0.00 0.00 0.03 87 1019.8
20260505083430 56 0 0.0 0.0 0.00 0.00 0.03 87 1019.9
20260505083030 56 261 0.0 0.0 0.00 0.00 0.03 87 1019.9
20260505082629 56 270 0.0 0.0 0.00 0.00 0.03 86 1019.9
20260505082229 56 315 0.0 0.0 0.00 0.00 0.03 87 1019.9
20260505081829 56 0 0.0 0.0 0.00 0.00 0.03 87 1020.0
20260505081429 56 4 0.0 0.0 0.00 0.00 0.03 86 1020.0
20260505081029 56 357 0.0 0.0 0.00 0.00 0.03 86 1020.1
20260505080629 56 0 0.0 3.0 0.00 0.00 0.03 86 1020.1
20260505080229 56 162 0.0 3.0 0.00 0.00 0.03 86 1020.1
20260505075829 56 315 2.0 3.0 0.00 0.00 0.03 86 1020.1
20260505075428 56 346 2.0 5.0 0.00 0.00 0.03 86 1020.2
20260505075028 57 351 3.0 4.0 0.00 0.00 0.02 86 1020.2
20260505074628 57 310 2.0 6.0 0.00 0.00 0.02 86 1020.2
20260505074228 57 19 3.0 6.0 0.00 0.00 0.02 85 1020.3
20260505073829 57 0 2.0 5.0 0.00 0.00 0.01 85 1020.4
20260505072624 57 315 3.0 4.0 0.00 0.00 0.00 84 1020.5
20260505072224 57 351 1.0 4.0 0.00 0.00 0.00 83 1020.5
20260505071424 57 357 4.0 5.0 0.00 0.00 0.00 82 1020.4
20260505071024 58 20 1.0 5.0 0.00 0.00 0.00 82 1020.2
20260505070624 58 317 4.0 4.0 0.00 0.00 0.00 81 1020.2
20260505070223 58 0 3.0 4.0 0.00 0.00 0.00 81 1020.0
20260505065823 58 348 3.0 3.0 0.00 0.00 0.00 81 1019.9
20260505065424 58 306 1.0 4.0 0.00 0.00 0.00 80 1019.9
20260505065023 58 283 1.0 2.0 0.00 0.00 0.00 80 1019.9
20260505064623 58 301 1.0 3.0 0.00 0.00 0.00 80 1019.8
20260505064224 58 315 2.0 5.0 0.00 0.00 0.00 80 1019.8
20260505063823 58 324 0.0 0.0 0.00 0.00 0.00 80 1020.0
20260505063422 58 0 0.0 3.0 0.00 0.00 0.00 80 1020.1
20260505063023 58 321 3.0 3.0 0.00 0.00 0.00 80 1019.9
20260505062623 58 0 0.0 5.0 0.00 0.00 0.00 79 1019.9
20260505062223 58 328 3.0 3.0 0.00 0.00 0.00 78 1019.9
20260505061822 58 22 1.0 4.0 0.00 0.00 0.00 78 1019.9
20260505061423 58 342 2.0 4.0 0.00 0.00 0.00 78 1020.0
20260505061022 58 337 1.0 4.0 0.00 0.00 0.00 78 1019.9
20260505060621 58 13 4.0 6.0 0.00 0.00 0.00 78 1019.9
20260505060221 58 353 3.0 5.0 0.00 0.00 0.00 78 1019.8
20260505055821 58 335 0.0 5.0 0.00 0.00 0.00 77 1019.9
20260505055422 58 0 0.0 5.0 0.00 0.00 0.00 77 1019.9
20260505055022 58 0 0.0 5.0 0.00 0.00 0.00 76 1019.9
20260505054622 58 285 5.0 5.0 0.00 0.00 0.00 76 1020.0
20260505054221 58 257 4.0 6.0 0.00 0.00 0.00 75 1019.9
20260505053820 59 300 4.0 6.0 0.00 0.00 0.00 75 1019.9
20260505053420 59 244 3.0 6.0 0.00 0.00 0.00 75 1020.0
20260505053020 59 256 2.0 6.0 0.00 0.00 0.00 75 1019.9
20260505052620 59 351 3.0 6.0 0.00 0.00 0.00 75 1019.9
20260505052220 59 270 4.0 5.0 0.00 0.00 0.00 75 1019.9
20260505051420 59 285 0.0 5.0 0.00 0.00 0.00 75 1019.9
20260505051019 59 335 4.0 5.0 0.00 0.00 0.00 75 1020.0
20260505050620 59 294 0.0 2.0 0.00 0.00 0.00 75 1020.0
20260505041018 61 355 5.0 6.0 0.00 0.00 0.00 71 1019.7
20260505040618 61 276 3.0 7.0 0.00 0.00 0.00 71 1019.6
20260505035818 61 339 5.0 8.0 0.00 0.00 0.00 71 1019.5
20260505035418 61 335 2.0 7.0 0.00 0.00 0.00 72 1019.5
20260505035017 61 310 4.0 8.0 0.00 0.00 0.00 72 1019.4
20260505034617 61 326 3.0 6.0 0.00 0.00 0.00 72 1019.3
20260505034217 62 4 5.0 9.0 0.00 0.00 0.00 71 1019.3
20260505033817 62 326 4.0 4.0 0.00 0.00 0.00 72 1019.3
20260505033417 62 317 3.0 6.0 0.00 0.00 0.00 72 1019.3
20260505033017 62 36 0.0 5.0 0.00 0.00 0.00 72 1019.2
20260505032617 62 315 0.0 0.0 0.00 0.00 0.00 72 1019.3
20260505032216 62 270 0.0 1.0 0.00 0.00 0.00 71 1019.1
20260505031416 62 225 0.0 0.0 0.00 0.00 0.00 70 1019.0
20260505031016 62 225 0.0 0.0 0.00 0.00 0.00 70 1019.0
20260505025815 63 225 0.0 0.0 0.00 0.00 0.00 70 1019.0
20260505025415 63 225 0.0 4.0 0.00 0.00 0.00 70 1018.9
20260505025014 63 225 0.0 0.0 0.00 0.00 0.00 69 1018.9
20260505024614 63 225 0.0 0.0 0.00 0.00 0.00 69 1018.8
20260505024214 63 270 0.0 0.0 0.00 0.00 0.00 69 1018.9
20260505023814 63 270 0.0 0.0 0.00 0.00 0.00 69 1018.9
20260505023414 63 270 0.0 0.0 0.00 0.00 0.00 69 1018.9
20260505023014 63 270 0.0 0.0 0.00 0.00 0.00 69 1019.0
20260505022614 63 270 0.0 0.0 0.00 0.00 0.00 69 1018.9
20260505022213 63 270 0.0 0.0 0.00 0.00 0.00 69 1018.9
20260505021813 63 270 0.0 0.0 0.00 0.00 0.00 68 1019.0
20260505021413 63 135 0.0 0.0 0.00 0.00 0.00 69 1019.1
20260505021013 63 135 0.0 0.0 0.00 0.00 0.00 68 1019.1
20260505020213 63 135 0.0 0.0 0.00 0.00 0.00 68 1019.1
20260505015813 63 135 0.0 0.0 0.00 0.00 0.00 68 1019.1
20260505015412 63 135 0.0 0.0 0.00 0.00 0.00 68 1019.1
20260505015012 63 135 0.0 0.0 0.00 0.00 0.00 68 1019.2
20260505014612 63 135 0.0 0.0 0.00 0.00 0.00 68 1019.1
20260505014212 64 135 0.0 0.0 0.00 0.00 0.00 68 1019.2
20260505013812 64 135 0.0 0.0 0.00 0.00 0.00 68 1019.2
20260505013412 64 180 0.0 0.0 0.00 0.00 0.00 68 1019.2
20260505013012 64 180 0.0 0.0 0.00 0.00 0.00 68 1019.1
20260505012611 64 180 0.0 0.0 0.00 0.00 0.00 68 1019.3
20260505012212 64 180 0.0 0.0 0.00 0.00 0.00 68 1019.3
20260505011811 64 180 0.0 0.0 0.00 0.00 0.00 68 1019.3
20260505011411 64 180 0.0 0.0 0.00 0.00 0.00 68 1019.3
20260505010611 64 180 0.0 0.0 0.00 0.00 0.00 68 1019.3
20260505010211 64 90 0.0 0.0 0.00 0.00 0.00 68 1019.3
20260505005810 64 90 0.0 0.0 0.00 0.00 0.00 68 1019.3
20260505005410 64 90 0.0 0.0 0.00 0.00 0.00 68 1019.4
20260505005010 64 135 0.0 0.0 0.00 0.00 0.00 68 1019.3
20260505003810 65 135 0.0 0.0 0.00 0.00 0.00 68 1019.4
20260505003410 65 135 0.0 0.0 0.00 0.00 0.00 67 1019.4
20260505002609 65 135 0.0 0.0 0.00 0.00 0.00 68 1019.5
20260505002209 65 157 0.0 0.0 0.00 0.00 0.00 67 1019.5
20260505001809 65 180 0.0 0.0 0.00 0.00 0.00 67 1019.5
20260505001409 65 229 0.0 0.0 0.00 0.00 0.00 67 1019.5
20260505000609 65 135 0.0 0.0 0.00 0.00 0.00 68 1019.5
20260505000208 65 135 0.0 0.0 0.00 0.00 0.00 67 1019.6
20260504235808 65 123 0.0 0.0 0.00 0.00 0.00 67 1019.5
20260504235408 65 90 0.0 0.0 0.00 0.00 0.00 67 1019.6
20260504235008 65 108 0.0 3.0 0.00 0.00 0.00 67 1019.6
20260504234209 65 135 0.0 2.0 0.00 0.00 0.00 68 1019.6
20260504233808 65 112 0.0 2.0 0.00 0.00 0.00 68 1019.7
20260504233408 65 90 0.0 0.0 0.00 0.00 0.00 67 1019.6
20260504233007 65 90 0.0 0.0 0.00 0.00 0.00 67 1019.7
20260504232607 65 130 0.0 0.0 0.00 0.00 0.00 67 1019.6
20260504232207 65 180 0.0 0.0 0.00 0.00 0.00 67 1019.6
20260504231407 65 90 0.0 0.0 0.00 0.00 0.00 67 1019.6
20260504231007 65 49 0.0 0.0 0.00 0.00 0.00 68 1019.6
20260504230606 66 36 0.0 2.0 0.00 0.00 0.00 67 1019.6
20260504230206 66 90 1.0 3.0 0.00 0.00 0.00 67 1019.6
20260504225406 66 121 0.0 3.0 0.00 0.00 0.00 67 1019.6
20260504225006 66 47 0.0 4.0 0.00 0.00 0.00 67 1019.6
20260504224606 66 45 0.0 4.0 0.00 0.00 0.00 67 1019.6
20260504224206 66 20 0.0 4.0 0.00 0.00 0.00 67 1019.7
20260504223806 66 135 0.0 5.0 0.00 0.00 0.00 67 1019.7
20260504223405 66 153 2.0 2.0 0.00 0.00 0.00 67 1019.7
20260504222605 67 76 3.0 6.0 0.00 0.00 0.00 67 1019.8
20260504222205 67 45 4.0 7.0 0.00 0.00 0.00 67 1019.7
20260504221805 67 65 3.0 5.0 0.00 0.00 0.00 66 1019.8
20260504220604 67 45 3.0 8.0 0.00 0.00 0.00 67 1019.8
20260504220204 67 58 7.0 8.0 0.00 0.00 0.00 67 1019.7
20260504215804 68 42 5.0 7.0 0.00 0.00 0.00 67 1019.8
20260504215404 68 42 5.0 7.0 0.00 0.00 0.00 67 1020.0
20260504215004 68 40 3.0 9.0 0.00 0.00 0.00 67 1020.0
20260504214604 68 47 7.0 7.0 0.00 0.00 0.00 67 1019.9
20260504214204 68 49 5.0 5.0 0.00 0.00 0.00 67 1019.8
20260504213803 68 49 0.0 8.0 0.00 0.00 0.00 67 1019.8
20260504213403 68 27 0.0 5.0 0.00 0.00 0.00 67 1019.9
20260504213003 68 49 5.0 5.0 0.00 0.00 0.00 68 1019.8
20260504212603 68 40 0.0 8.0 0.00 0.00 0.00 68 1019.8
20260504211803 68 265 0.0 0.0 0.00 0.00 0.00 67 1019.8
20260504211403 68 90 0.0 0.0 0.00 0.00 0.00 69 1019.8
20260504211003 68 45 0.0 5.0 0.00 0.00 0.00 70 1019.8
20260504210602 68 69 0.0 1.0 0.00 0.00 0.00 69 1019.8
20260504210202 68 92 0.0 0.0 0.00 0.00 0.00 69 1019.8
20260504205803 67 2 0.0 4.0 0.00 0.00 0.00 69 1019.8
20260504205402 67 45 0.0 0.0 0.00 0.00 0.00 71 1019.9
20260504204201 67 101 0.0 3.0 0.00 0.00 0.00 70 1019.9
20260504203801 67 0 0.0 0.0 0.00 0.00 0.00 70 1020.0
20260504203401 67 45 3.0 5.0 0.00 0.00 0.00 71 1020.0
20260504203001 67 56 0.0 0.0 0.00 0.00 0.00 71 1019.9
20260504202601 66 315 0.0 0.0 0.00 0.00 0.00 71 1020.0
20260504202201 66 209 0.0 0.0 0.00 0.00 0.00 71 1020.0
20260504201400 66 94 0.0 0.0 0.00 0.00 0.00 71 1019.9
20260504201000 66 229 0.0 0.0 0.00 0.00 0.00 71 1020.0
20260504200600 65 225 0.0 0.0 0.00 0.00 0.00 71 1020.0
20260504200200 65 135 0.0 2.0 0.00 0.00 0.00 71 1019.9
20260504195800 65 270 0.0 0.0 0.00 0.00 0.00 71 1020.0
20260504195400 65 0 0.0 0.0 0.00 0.00 0.00 71 1019.9
20260504195000 65 0 0.0 0.0 0.00 0.00 0.00 71 1019.9
20260504194559 65 217 0.0 1.0 0.00 0.00 0.00 71 1020.0
20260504194159 65 105 0.0 5.0 0.00 0.00 0.00 71 1020.0
20260504193359 65 270 0.0 0.0 0.00 0.00 0.00 72 1020.0
20260504192959 65 225 0.0 1.0 0.00 0.00 0.00 71 1020.0
20260504192559 65 0 0.0 1.0 0.00 0.00 0.00 71 1020.0
20260504192159 65 94 1.0 1.0 0.00 0.00 0.00 71 1020.1
20260504191759 65 45 0.0 0.0 0.00 0.00 0.00 71 1020.2
20260504191358 64 33 0.0 0.0 0.00 0.00 0.00 71 1020.2
20260504190958 64 4 0.0 0.0 0.00 0.00 0.00 71 1020.2
20260504190558 64 90 0.0 3.0 0.00 0.00 0.00 71 1020.2
20260504190158 64 312 0.0 0.0 0.00 0.00 0.00 72 1020.2
20260504185758 64 270 0.0 0.0 0.00 0.00 0.00 71 1020.3
20260504185358 64 90 0.0 0.0 0.00 0.00 0.00 72 1020.3
20260504184557 63 135 0.0 0.0 0.00 0.00 0.00 72 1020.2
20260504184157 63 90 0.0 0.0 0.00 0.00 0.00 71 1020.3
20260504183757 63 135 0.0 0.0 0.00 0.00 0.00 71 1020.2
20260504183357 63 112 0.0 0.0 0.00 0.00 0.00 71 1020.2
20260504182557 63 85 0.0 0.0 0.00 0.00 0.00 71 1020.3
20260504182157 63 135 0.0 0.0 0.00 0.00 0.00 72 1020.3
20260504181756 63 90 0.0 0.0 0.00 0.00 0.00 72 1020.3
20260504181356 63 135 0.0 0.0 0.00 0.00 0.00 72 1020.2
20260504180556 62 135 0.0 0.0 0.00 0.00 0.00 71 1020.2
20260504180156 62 45 0.0 3.0 0.00 0.00 0.00 72 1020.3
20260504175756 62 90 0.0 0.0 0.00 0.00 0.00 72 1020.2
20260504175356 62 90 0.0 0.0 0.00 0.00 0.00 72 1020.3
20260504174955 62 45 0.0 0.0 0.00 0.00 0.00 72 1020.3
20260504174555 62 0 0.0 0.0 0.00 0.00 0.00 72 1020.4
20260504174155 62 225 0.0 0.0 0.00 0.00 0.00 72 1020.3
20260504173755 62 270 0.0 0.0 0.00 0.00 0.00 72 1020.2
20260504173355 61 270 0.0 0.0 0.00 0.00 0.00 72 1020.1
20260504172955 61 225 0.0 0.0 0.00 0.00 0.00 72 1020.2
20260504172555 61 225 0.0 0.0 0.00 0.00 0.00 72 1020.2
20260504172154 61 45 0.0 0.0 0.00 0.00 0.00 72 1020.2
20260504171754 61 270 0.0 0.0 0.00 0.00 0.00 72 1020.2
20260504171354 61 135 0.0 0.0 0.00 0.00 0.00 73 1020.1
20260504170955 60 112 0.0 0.0 0.00 0.00 0.00 73 1020.0
20260504170554 60 249 0.0 0.0 0.00 0.00 0.00 74 1020.0
20260504170154 60 348 0.0 0.0 0.00 0.00 0.00 74 1020.0
20260504160152 58 180 0.0 0.0 0.00 0.00 0.00 75 1019.7
20260504150950 57 225 0.0 0.0 0.00 0.00 0.00 75 1019.7
20260504150550 57 225 0.0 0.0 0.00 0.00 0.00 75 1019.7
20260504150149 57 225 0.0 0.0 0.00 0.00 0.00 75 1019.8
20260504140548 57 328 0.0 0.0 0.00 0.00 0.00 76 1019.7
20260504140147 57 315 0.0 0.0 0.00 0.00 0.00 76 1019.7
20260504130547 57 0 0.0 0.0 0.00 0.00 0.00 75 1019.4
20260504130146 57 9 0.0 0.0 0.00 0.00 0.00 75 1019.4
20260504120144 57 270 0.0 0.0 0.00 0.00 0.00 75 1018.9
20260504110542 57 180 0.0 4.0 0.00 0.00 0.00 74 1019.1
20260504110142 57 232 3.0 4.0 0.00 0.00 0.00 74 1019.1